Lid_Strength_Index
2 1 1 1 2 3 3 6 9 2 1 9 8 11 9 7 7 6 6 7 8 10 10 11 11 11 9 6 7 10 9 12 16 13 8 7 8 10 11 17 18 16 17 16
1 1 1 1 1 3 5 7 6 2 2 11 10 8 8 7 7 7 7 8 7 8 10 13 10 9 6 6 7 10 9 14 18 15 12 10 11 10 10 11 13 16 19 17
1 1 1 1 1 2 4 6 10 6 5 6 9 10 9 8 6 7 7 8 7 9 11 10 11 10 8 6 7 5 7 12 15 18 15 12 14 11 10 11 16 15 15 13
1 0 0 0 1 1 4 5 8 6 10 8 8 8 8 9 10 7 7 9 9 10 12 11 12 10 9 7 6 7 9 14 12 11 10 10 10 11 10 12 12 15 14 12
0 0 0 0 1 2 4 7 7 6 8 7 8 8 9 9 9 8 9 10 9 9 12 11 12 10 10 11 9 10 9 14 12 13 11 10 11 10 11 11 11 12 12 12
-0 0 -0 -0 0 1 3 3 3 6 7 8 9 9 8 8 7 7 7 8 9 9 8 7 7 7 8 8 10 11 12 13 15 17 11 11 14 11 10 10 10 11 14 12
-0 0 -0 -0 -0 1 2 3 3 8 10 8 8 7 7 8 8 9 7 7 9 6 4 6 7 7 7 8 8 8 11 13 13 16 14 19 11 8 8 11 10 9 10 9
-1 -0 -0 -0 -0 0 2 3 4 6 10 8 8 8 8 8 8 8 8 7 5 5 7 10 12 12 11 10 8 8 8 11 15 18 17 13 11 11 10 11 12 9 10 9
-1 -0 -0 -0 0 0 2 2 2 4 9 9 7 8 8 10 10 10 8 6 4 6 8 11 15 17 14 15 12 8 9 10 14 16 19 20 13 8 6 8 16 8 9 10
-1 -0 0 0 0 0 3 3 1 3 8 6 6 9 9 7 9 10 9 8 7 6 11 14 15 15 11 16 16 14 14 13 16 16 17 14 9 7 7 16 15 8 9 12
0 0 0 0 1 1 2 3 1 3 6 6 5 5 7 8 8 11 9 10 8 9 13 13 13 14 13 14 12 13 15 15 16 15 17 18 7 8 13 10 8 9 10 11
1 1 1 1 1 0 1 3 2 2 5 6 4 4 4 4 6 7 8 8 8 8 11 11 11 13 12 13 16 9 15 12 14 13 14 8 7 8 6 7 9 10 11 11
2 1 1 1 0 1 2 3 3 4 6 7 6 6 4 3 4 4 8 7 7 7 6 9 10 13 10 15 13 11 9 8 12 12 10 8 7 7 7 7 9 9 10 9
2 2 1 1 1 0 1 3 3 4 6 10 8 2 4 2 3 4 4 5 5 5 6 8 10 11 8 11 10 11 9 8 10 10 8 8 8 7 7 8 9 10 9 9
3 2 2 1 1 1 1 2 3 3 6 9 8 6 5 4 3 4 4 5 6 7 8 9 10 8 9 9 9 11 8 10 12 13 9 9 8 7 7 9 10 9 9 11
3 2 2 1 1 1 4 7 4 3 4 8 11 5 4 4 3 4 5 5 6 7 8 9 7 6 8 12 13 8 7 7 7 9 8 6 6 7 8 9 9 8 9 10
3 3 2 1 1 2 6 7 4 3 3 8 10 9 5 4 4 5 6 6 7 7 8 9 9 8 7 10 13 8 7 7 8 7 5 7 7 10 8 7 7 8 9 10
3 3 3 2 2 3 5 3 3 3 5 6 10 10 8 4 8 8 6 8 7 8 8 8 9 8 8 12 8 7 6 7 7 5 6 8 8 9 8 8 8 9 10 11
3 3 2 3 5 6 5 2 3 4 6 9 9 11 12 5 7 6 7 7 10 7 10 10 8 9 12 9 8 7 6 8 6 6 8 9 9 9 8 9 9 10 11 11
3 3 6 8 6 2 3 5 8 8 8 8 10 8 9 6 7 8 8 7 10 12 9 7 10 11 7 6 6 5 6 6 6 9 10 10 10 9 8 8 8 9 10 10
4 7 8 5 2 5 7 9 10 10 11 9 9 8 9 5 9 10 8 10 9 13 11 11 12 12 9 6 5 5 6 6 7 8 9 9 9 9 8 8 8 9 10 10
5 5 4 5 7 8 9 10 9 9 10 8 9 8 7 6 6 9 9 11 10 14 8 11 13 10 7 5 5 5 6 7 8 8 9 9 8 8 8 9 8 9 9 9
4 7 9 9 9 11 11 13 11 11 8 7 7 9 7 8 7 9 10 12 13 8 12 13 11 8 6 5 5 6 6 7 8 8 9 8 8 8 9 9 8 8 8 8
8 9 11 10 11 10 9 9 9 7 7 7 7 9 9 9 11 10 12 10 10 14 15 14 9 7 6 5 4 6 7 8 8 8 8 9 9 9 8 8 8 8 9 8
8 8 11 10 7 7 6 6 7 6 5 7 8 8 9 10 11 10 10 13 14 13 14 11 8 6 5 5 5 6 7 8 8 8 9 9 8 8 9 8 8 9 9 9
7 8 9 7 8 8 7 6 7 5 6 6 7 9 11 11 11 12 13 13 14 12 9 7 6 6 6 6 6 6 6 7 8 8 8 8 8 9 9 8 8 9 9 10
8 8 6 6 7 7 7 6 6 4 6 9 9 12 12 9 12 13 10 13 10 8 7 6 6 6 6 6 6 6 6 7 7 7 8 8 8 8 8 10 9 9 10 10